Total_Precipitation_Accumulation
1.95 1.95 1.99 2.15 2.15 2.18 2.15 1.86 1.60 1.68 1.76 1.68 1.47 1.44 1.52 1.54 1.59 1.73 1.89 1.83 1.77 1.93 2.20 2.37 2.45 2.39 2.29 2.28 2.25 2.25 2.24 2.20 2.15 2.03 1.80 1.63 1.55 1.54 1.57 1.60 1.62 1.57 1.51
2.24 2.28 2.31 2.33 2.32 2.43 2.42 2.15 1.96 2.07 2.01 1.93 1.73 1.62 1.61 1.68 1.68 1.77 1.87 1.83 1.64 1.60 1.85 2.23 2.46 2.57 2.60 2.61 2.47 2.31 2.28 2.22 2.21 2.10 1.94 1.77 1.68 1.61 1.57 1.59 1.63 1.64 1.57
2.59 2.68 2.72 2.60 2.49 2.50 2.53 2.44 2.28 2.24 2.16 1.96 1.86 1.84 1.81 1.68 1.63 1.78 1.88 1.88 1.77 1.69 1.79 1.93 2.12 2.36 2.69 2.83 2.74 2.60 2.49 2.42 2.29 2.18 2.11 1.97 1.83 1.73 1.65 1.62 1.62 1.61 1.59
2.70 2.92 2.97 2.73 2.56 2.51 2.64 2.71 2.56 2.48 2.44 2.35 2.10 1.86 1.83 1.80 1.71 1.75 1.77 1.83 1.95 1.87 1.92 1.88 1.93 2.10 2.36 2.61 2.77 2.82 2.75 2.63 2.50 2.39 2.32 2.19 2.09 1.91 1.76 1.71 1.68 1.63 1.61
2.85 3.01 3.10 3.05 2.79 2.76 2.84 2.73 2.88 2.73 2.70 2.51 2.17 1.97 1.79 1.66 1.70 1.69 1.73 1.74 1.77 1.81 1.89 1.92 1.96 2.02 2.20 2.42 2.57 2.72 2.76 2.73 2.57 2.39 2.36 2.38 2.25 2.06 1.92 1.88 1.80 1.72 1.68
2.99 3.15 3.17 3.21 3.09 3.10 3.23 3.16 3.12 2.92 2.67 2.51 2.17 1.98 1.74 1.52 1.50 1.55 1.55 1.54 1.50 1.52 1.64 1.71 1.84 1.82 1.95 2.11 2.41 2.67 2.94 3.00 2.83 2.63 2.52 2.44 2.30 2.09 1.96 1.97 1.93 1.86 1.80
3.54 3.68 3.57 3.50 3.31 3.25 3.30 3.21 3.02 2.93 2.78 2.72 2.58 2.24 1.82 1.45 1.32 1.28 1.36 1.40 1.35 1.35 1.43 1.54 1.61 1.66 1.74 1.78 1.92 2.24 2.67 3.00 2.98 2.83 2.73 2.60 2.44 2.28 2.17 2.12 2.10 2.05 1.95
4.16 4.09 3.98 3.75 3.52 3.32 3.15 3.02 2.89 2.77 2.61 2.61 2.59 2.49 2.11 1.77 1.42 1.17 1.29 1.33 1.32 1.38 1.38 1.32 1.35 1.38 1.39 1.52 1.67 1.90 2.21 2.43 2.65 2.84 2.81 2.63 2.50 2.44 2.40 2.34 2.30 2.25 2.18
4.03 3.90 3.81 3.64 3.47 3.31 3.09 3.02 2.96 2.88 2.74 2.69 2.67 2.72 2.49 2.01 1.58 1.32 1.22 1.26 1.34 1.41 1.42 1.37 1.29 1.28 1.33 1.41 1.49 1.69 1.92 2.01 2.19 2.43 2.62 2.57 2.49 2.52 2.54 2.55 2.52 2.48 2.43
3.76 3.61 3.62 3.54 3.35 3.15 2.98 2.78 2.72 2.78 2.85 2.72 2.60 2.39 2.25 2.01 1.84 1.60 1.40 1.32 1.29 1.31 1.34 1.33 1.28 1.31 1.37 1.49 1.64 1.70 1.75 1.73 1.80 1.94 2.05 2.18 2.26 2.34 2.44 2.42 2.47 2.56 2.61
3.47 3.28 3.24 3.13 2.94 2.76 2.62 2.48 2.38 2.42 2.49 2.51 2.49 2.38 2.25 2.08 1.89 1.74 1.59 1.47 1.42 1.32 1.29 1.31 1.31 1.34 1.39 1.44 1.55 1.60 1.65 1.58 1.60 1.66 1.72 1.85 1.97 2.09 2.24 2.38 2.51 2.65 2.79
3.24 2.98 2.72 2.61 2.55 2.37 2.14 2.06 2.01 1.98 2.03 2.12 2.24 2.24 2.10 2.01 1.92 1.89 1.77 1.63 1.58 1.49 1.42 1.39 1.33 1.31 1.37 1.35 1.35 1.52 1.46 1.43 1.45 1.48 1.54 1.62 1.65 1.74 1.89 2.09 2.35 2.55 2.71
2.81 2.56 2.35 2.22 2.12 2.05 1.92 1.80 1.75 1.63 1.62 1.70 1.77 1.91 1.92 1.83 1.75 1.83 1.92 1.85 1.70 1.53 1.42 1.34 1.21 1.14 1.17 1.28 1.40 1.44 1.31 1.27 1.22 1.22 1.28 1.43 1.53 1.57 1.56 1.68 1.86 2.09 2.30
2.32 2.09 1.97 1.83 1.64 1.49 1.43 1.44 1.48 1.47 1.44 1.49 1.50 1.64 1.75 1.76 1.75 1.74 1.78 1.93 1.90 1.65 1.49 1.33 1.20 1.11 1.13 1.20 1.34 1.24 1.20 1.16 1.09 1.11 1.14 1.23 1.33 1.49 1.49 1.43 1.42 1.50 1.66
1.78 1.65 1.54 1.53 1.45 1.34 1.27 1.24 1.25 1.34 1.34 1.34 1.36 1.45 1.53 1.53 1.54 1.59 1.66 1.78 1.92 1.81 1.61 1.40 1.37 1.31 1.26 1.26 1.35 1.19 1.22 1.19 1.14 1.19 1.21 1.24 1.31 1.47 1.53 1.42 1.32 1.24 1.23
1.47 1.33 1.26 1.25 1.27 1.24 1.22 1.27 1.27 1.29 1.32 1.27 1.23 1.22 1.24 1.24 1.28 1.34 1.44 1.55 1.69 1.77 1.66 1.36 1.32 1.39 1.37 1.25 1.41 1.29 1.25 1.22 1.17 1.37 1.52 1.47 1.44 1.62 1.77 1.72 1.53 1.39 1.32
1.23 1.17 1.11 1.07 1.08 1.12 1.11 1.14 1.11 1.08 1.05 1.02 1.00 1.01 1.04 1.10 1.18 1.19 1.21 1.36 1.56 1.71 1.73 1.42 1.27 1.35 1.49 1.45 1.46 1.41 1.31 1.28 1.33 1.70 1.90 2.09 1.85 1.75 1.86 1.84 1.73 1.53 1.38
1.09 1.06 0.97 0.91 0.88 0.87 0.86 0.88 0.89 0.92 0.93 0.89 0.92 0.97 0.98 1.01 1.05 1.12 1.17 1.24 1.39 1.60 1.75 1.67 1.44 1.43 1.49 1.52 1.56 1.55 1.35 1.20 1.26 1.71 2.00 2.31 2.27 2.03 2.04 1.88 1.72 1.53 1.40
0.98 0.92 0.88 0.86 0.79 0.77 0.73 0.72 0.75 0.82 0.85 0.83 0.86 0.91 0.96 1.08 1.08 1.10 1.16 1.19 1.29 1.42 1.69 1.76 1.58 1.54 1.59 1.66 1.76 1.64 1.47 1.42 1.20 1.46 1.88 2.21 2.37 2.41 2.48 2.32 2.01 1.66 1.43
0.94 0.90 0.89 0.81 0.74 0.69 0.68 0.68 0.71 0.75 0.78 0.80 0.86 0.91 0.95 1.08 1.15 1.17 1.16 1.18 1.22 1.36 1.55 1.71 1.67 1.63 1.70 1.78 1.83 1.78 1.63 1.49 1.35 1.30 1.74 2.21 2.54 2.58 2.74 2.82 2.52 2.04 1.64
0.88 0.87 0.86 0.81 0.75 0.68 0.64 0.66 0.67 0.70 0.78 0.82 0.81 0.83 0.88 0.97 1.05 1.04 0.97 0.99 1.13 1.35 1.44 1.61 1.67 1.63 1.64 1.77 1.76 1.57 1.52 1.45 1.30 1.24 1.46 1.86 2.56 2.88 2.92 2.97 2.85 2.33 1.86
0.89 0.86 0.83 0.80 0.75 0.63 0.64 0.66 0.64 0.68 0.74 0.78 0.79 0.78 0.75 0.74 0.71 0.73 0.79 0.84 0.96 1.22 1.55 1.75 1.73 1.66 1.55 1.54 1.59 1.54 1.54 1.55 1.48 1.20 1.18 1.46 2.06 2.84 3.09 3.04 2.93 2.33 1.77
0.83 0.78 0.75 0.75 0.72 0.66 0.65 0.59 0.59 0.64 0.74 0.81 0.83 0.81 0.65 0.55 0.63 0.69 0.75 0.79 0.92 1.09 1.38 1.73 1.83 1.62 1.56 1.53 1.59 1.58 1.64 1.69 1.57 1.24 1.25 1.49 1.86 2.55 2.77 2.77 2.65 2.02 1.58
0.78 0.77 0.76 0.75 0.74 0.64 0.61 0.56 0.56 0.61 0.72 0.74 0.74 0.77 0.77 0.71 0.67 0.72 0.79 0.88 1.01 1.16 1.27 1.37 1.67 1.50 1.29 1.30 1.40 1.45 1.55 1.58 1.48 1.30 1.32 1.59 1.86 2.32 2.34 2.43 2.33 1.84 1.47
0.75 0.71 0.69 0.70 0.76 0.72 0.63 0.56 0.52 0.60 0.68 0.68 0.65 0.65 0.64 0.66 0.72 0.84 0.97 1.17 1.29 1.41 1.34 1.48 1.64 1.59 1.43 1.33 1.24 1.32 1.56 1.61 1.54 1.39 1.36 1.60 1.79 1.91 2.05 2.14 1.94 1.73 1.45
0.71 0.66 0.64 0.67 0.71 0.68 0.54 0.47 0.46 0.54 0.65 0.68 0.70 0.68 0.62 0.57 0.69 0.83 1.08 1.37 1.50 1.57 1.43 1.52 1.78 1.83 1.66 1.62 1.58 1.49 1.63 1.69 1.63 1.58 1.36 1.44 1.63 1.67 1.90 1.88 1.73 1.61 1.51